www.pogodaiklimat.ru

Погода и климат >> Архив погоды >> Россия >> Красноярский край >> Агинское


ПОГОДА в Агинском

  • Прогноз погоды в Агинском
  • Монитор погоды в Агинском

АРХИВ ПОГОДЫ в Агинском

Время (UTC), дата Ветер
(напр.,м/с)
 
Видим.   Явления Облачность Т
(С)
Тd
(С)
f
(%)
Тe
(С)
Тes
(С)
Комфортность P
(гПа)
Po
(гПа)
Тmin
(С)
Tmax
(С)
R
(мм)
R24
(мм)
S
(см)
09 12.07 В 2 20 км 10/8 600 м
[Cb cap Ci fib]
+22.8 +11.0 47 +25 +26 комфорт 1015.2 976.2
12 12.07 СВ 1 20 км 10/5 600 м
[Cb cap Ci fib]
+22.8 +11.0 47 +25 +26 комфорт 1014.5 975.5 +24.0
15 12.07 С 1 20 км 10/6 600 м
[Cb cap Ci fib]
+18.2 +11.8 66 +20 +20 1015.9 976.2
18 12.07 штиль 0 20 км 8/0
[Ci fib]
+13.1 +11.4 89 +13 +13 1016.9 976.4
21 12.07 С 1 20 км 10/0
[Cs]
+10.0 +9.3 95 +9 +9 1016.7 975.8
00 13.07 С 1 20 км 10/0
[Cs]
+13.9 +12.0 88 +14 +17 1015.9 975.6 +9.4
03 13.07 В 2 20 км 10/0
[Cs]
+20.7 +14.4 67 +24 +33 комфорт 1013.5 974.3
06 13.07 В 3 4000 м дымка 10/4 1000 м
[Cu med, cong Cs]
+23.3 +13.1 53 +26 +33 жарко 1011.5 972.6
09 13.07 ЮВ 2 4000 м дымка 10/3 1000 м
[Cu med, cong Cs]
+23.8 +13.5 52 +26 +31 жарко 1009.9 971.2
12 13.07 СВ 1 4000 м дымка 10/4 1000 м
[Cu Sc Cs]
+23.3 +14.1 56 +27 +28 душно 1009.4 970.7 +24.6
15 13.07 СВ 2 4000 м дымка 10/6 1000 м
[Sc Cs]
+20.7 +13.2 62 +24 +24 комфорт 1009.5 970.4
18 13.07 штиль 0 4000 м дымка 10/3 1000 м
[Sc Cs]
+18.1 +12.7 71 +18 +18 1008.6 969.2
21 13.07 СЗ 1 20 км 10/3 1000 м
[Sc Cs]
+15.7 +12.6 82 +16 +16 1007.5 967.8
00 14.07 СЗ 2 4000 м слаб. дождь 10/10 1140 м
[Sc]
+15.3 +13.0 86 +15 +15 1008.2 968.5 +15.3 0.0
03 14.07 штиль 0 4000 м слаб. дождь 10/10 1170 м
[Sc]
+15.8 +14.1 90 +16 +16 1008.2 968.5 +15.2
06 14.07 СЗ 1 20 км {дождь} 10/10 900 м
[Cb cap]
+18.8 +14.8 78 +21 +21 комфорт 1007.7 968.5
09 14.07 ЮВ 1 20 км 8/4 1000 м
[Cu hum Cs]
+22.1 +15.2 65 +26 +31 душно 1006.9 968.1
12 14.07 Ю 3 20 км 6/0
[Cs]
+20.4 +14.7 70 +23 +24 комфорт 1006.6 967.6 +22.4 1
15 14.07 штиль 0 20 км в посл. час гроза {ливн. осадки} 10/10 960 м
[Cb cap]
+15.4 +14.4 94 +15 +15 1007.4 967.7
18 14.07 С 1 4000 м дымка {гроза} 10/10 1170 м
[Sc]
+13.3 +12.5 95 +13 +13 1007.3 967.3
21 14.07 СВ 1 4000 м дымка {ливн. осадки} 8/4 600 м
[Cb cap Cs]
+12.1 +11.3 95 +12 +12 1006.7 966.5
00 15.07 СЗ 1 20 км {ливн. осадки} 4/4 1000 м
[Cu med, cong]
+15.4 +14.2 93 +16 +18 1005.9 966.2 +10.9 5
03 15.07 СЗ 2 20 км 8/5 1000 м
[Cu Sc Ci fib]
+19.6 +12.0 61 +22 +26 комфорт 1004.9 965.8
06 15.07 СВ 1 20 км 6/6 1000 м
[Cu Sc]
+22.9 +13.9 57 +26 +33 жарко 1003.6 965.0
09 15.07 СЗ 2 20 км гроза без осадков 10/10 870 м
[Cb cap]
+21.1 +13.9 63 +24 +24 комфорт 1003.7 964.9
12 15.07 С 1 20 км в посл. час гроза {ливн. осадки} 10/10 870 м
[Cb cap]
+14.5 +13.7 95 +15 +15 1006.0 966.2 +23.0 55
15 15.07 штиль 0 4000 м дымка 3/0
[Ac lent]
+12.3 +11.6 95 +12 +12 1006.3 966.2
18 15.07 штиль 0 4000 м дымка {туман} ясно +13.3 +12.6 96 +13 +13 1006.3 966.3
21 15.07 штиль 0 4000 м дымка 10/0
[Cs]
+13.5 +12.8 96 +13 +13 1006.1 966.2
00 16.07 ЮВ 1 1000 м туман 10/0 2000 м
[As trans]
+14.6 +13.9 96 +15 +16 1006.4 966.6 +12.2
03 16.07 СВ 1 20 км в посл. час туман 10/10 900 м
[Cb cap]
+17.5 +14.5 83 +19 +19 1006.3 967.0
06 16.07 В 1 20 км {туман} 8/8 960 м
[Cb cap]
+19.9 +13.8 68 +23 +27 комфорт 1005.4 966.4
09 16.07 С 2 20 км 10/1 1000 м
[Cu med, cong Cs]
+22.4 +14.9 63 +26 +33 жарко 1004.8 966.1
12 16.07 СВ 1 20 км 8/5 1000 м
[Sc As op Ci sp]
+22.6 +16.3 68 +27 +28 душно 1004.8 966.2 +23.9
15 16.07 З 1 20 км 10/5 1000 м
[Sc Ac As]
+19.1 +15.9 82 +22 +22 комфорт 1005.6 966.5
18 16.07 штиль 0 20 км 10/3 1000 м
[Sc Ac As]
+15.4 +14.4 94 +15 +15 1005.1 965.5
21 16.07 С 1 20 км 10/0
[Ac As]
+12.4 +11.7 95 +12 +12 1004.7 964.7
00 17.07 С 1 4000 м дымка 10/10 1170 м
[Sc]
+14.9 +14.2 96 +15 +15 1004.5 964.8 +11.4
03 17.07 С 1 4000 м дымка 9/9 900 м
[Cb cap]
+19.1 +15.3 79 +22 +23 комфорт 1004.0 965.0
06 17.07 З 3 20 км 8/8 870 м
[Cb cap]
+23.4 +15.5 61 +28 +30 душно 1004.1 965.6
09 17.07 СЗ 3 20 км 9/5 600 м
[Cb cap Ci fib]
+24.4 +14.4 54 +27 +30 жарко 1004.5 966.1
12 17.07 З 2 50 км 3/3 1000 м
[Sc]
+23.2 +12.6 51 +26 +27 жарко 1005.8 967.2 +24.4
15 17.07 ЮЗ 1 20 км 4/4 1000 м
[Sc]
+14.2 +12.8 91 +14 +14 1008.0 968.1
18 17.07 штиль 0 20 км 3/0
[Ac lent]
+11.1 +10.3 95 +10 +10 1008.3 967.9
21 17.07 штиль 0 20 км ясно +8.9 +8.2 95 +8 +8 1008.2 967.5
00 18.07 ЮВ 1 4000 м дымка 4/0 2000 м
[Ac lent]
+13.2 +12.3 94 +13 +15 1008.3 968.2 +8.4
03 18.07 ЮВ 2 20 км 4/3 1000 м
[Cu med, cong Cc]
+22.8 +14.8 61 +27 +34 душно 1006.3 967.7
06 18.07 ЮВ 1 20 км 4/4 1000 м
[Cu med, cong]
+26.2 +13.7 46 +28 +39 жарко 1004.8 966.6
09 18.07 В 1 20 км 4/3 1000 м
[Cu Sc Cc]
+27.7 +13.0 40 +29 +36 жарко 1003.2 965.2
12 18.07 СВ 1 20 км 6/3 1000 м
[Sc Cc]
+25.6 +15.1 52 +28 +29 жарко 1003.8 965.6 +27.8
15 18.07 штиль 0 20 км ясно +19.2 +15.5 79 +21 +21 комфорт 1004.7 965.7
18 18.07 СВ 1 20 км ясно +14.5 +13.7 95 +15 +15 1004.9 965.2
21 18.07 штиль 0 20 км 3/3 1000 м
[Sc]
+12.5 +11.8 95 +12 +12 1005.1 965.1
00 19.07 СВ 1 20 км 4/4 1000 м
[Cu Sc]
+16.8 +14.7 87 +18 +19 1005.2 965.8 +12.1
03 19.07 С 3 20 км 8/4 1000 м
[Cu Sc Ac As Ci fib]
+23.8 +15.9 61 +27 +31 жарко 1004.1 965.6
06 19.07 СЗ 3 20 км 10/10 870 м
[Cb cap]
+20.6 +15.6 73 +24 +24 комфорт 1005.1 966.2

 

Местоположение метеостанции Агинское (Красноярский край, Россия): широта 55.25 долгота 94.88 высота над уровнем моря 337 м.

В архиве по умолчанию представлена погода в Агинском за последнюю неделю. Архивные данные за месяц целиком и за предыдущие месяцы, начиная с января 2011 года, Вы можете получить, выбрав интересующий диапазон дат из раскрывающегося списка и нажав кнопку "Ввод!".


*Определитесь, кто Вы:
робот инопланетянин человек

Внимание! Время в таблицах - всемирное. Для получения местного времени необходимо прибавить поправку, которая равна 7 ч.

Смотрите также архив погоды в соседних городах и на ближайших метеорологических станциях:

Погода в Ирбейском (Красноярский край, Россия) (56 км)
Погода в Уяре (Красноярский край, Россия) (70 км)
Погода в Шалинском (Красноярский край, Россия) (88 км)
Погода в Анастасино (Красноярский край, Россия) (96 км)
Погода в Солянке (Красноярский край, Россия) (105 км)
Погода в Канске (Красноярский край, Россия) (116 км)
Погода в Щетинкино (Красноярский край, Россия) (123 км)
Погода в Артемовске (Красноярский край, Россия) (126 км)
Погода в Железногорске (Красноярский край, Россия) (140 км)
Погода в Роевом Ручье (Красноярский край, Россия) (157 км)

Пояснения к столбцам:

Ветер - указаны скорость ветра в м/с - средняя за 10 мин, порывы в срок и между сроками (в фигурных скобках) и направление, откуда дует ветер: С - северный, СВ - северо-восточный, В - восточный, ЮВ - юго-восточный, Ю - южный, ЮЗ - юго-западный, З - западный, СЗ - северо-западный.
Видимость - горизонтальная дальность видимости в метрах или километрах. При видимости от 1 до 10 км при отсутствии осадков обычно наблюдается дымка, при ухудшении видимости до 1 км и менее - туман. В сухую погоду видимость может ухудшаться дымом, пылью или мглою.
Явления - указаны атмосферные явления, наблюдавшиеся в срок или в последний час перед сроком; фигурными скобками обозначены явления, наблюдавшиеся между сроками (за 1-3 часа до срока); квадратными скобками обозначены град или гололедные отложения с указанием их диаметра в мм.
Облачность - указаны через наклонную черту общая и нижняя облачность в баллах и высота нижней границы облаков в метрах; квадратными скобками обозначены формы облаков: Ci - перистые, Cs - перисто-слоистые, Cc - перисто-кучевые, Ac - высококучевые, As - высокослоистые, Sc - слоисто-кучевые, Ns - слоисто-дождевые, Cu - кучевые, Cb - кучево-дождевые. Подробнее классификацию облаков см. в Атласе облаков (PDF).
T - Температура воздуха - температура, измеренная на высоте 2 м над землей.
Td - Температура точки росы - температура, при понижении до которой содержащийся в воздухе водяной пар достигнет насыщения.
f - Относительная влажность воздуха - влажноcть воздуха, измеренная на высоте 2 м над землей.
Te - Эффективная температура - температура, которую ощущает одетый по сезону человек в тени. Характеристика душности погоды. При расчете учитывается влияние влажности воздуха и скорости ветра на теплоощущения человека.
Tes - Эффективная температура на солнце - температура, которую ощущает человек, с поправкой на солнечный нагрев. Характеристика знойности погоды. Зависит от высоты солнца над горизонтом, облачности и скорости ветра. Ночью, в пасмурную погоду, а также при ветре 12 м/с и более поправка равна нулю.
P - Атмосферное давление - приведенное к уровню моря атмосферное давление.
Po - Атмосферное давление - измеренное на уровне метеостанции атмосферное давление.
Tmin - Минимальная температура - минимум температуры воздуха на высоте 2 м над землей.
Tmax - Максимальная температура - максимум температуры воздуха на высоте 2 м над землей.
R - Количество осадков - Количество выпавших осадков за период времени, мм. При наведении курсора мыши на число - период времени, за который выпало указанное количество осадков.
R24 - Количество осадков - Количество выпавших осадков за 24 часа, мм.
S - Снежный покров - Высота снежного покрова, см. При наведении курсора мыши на число - состояние снежного покрова и степень покрытия местности в баллах.